Henderson, NV

4:27 AM PDT on August 25, 2016 (GMT -0700)
Henderson

Weather History for KHND - April, 2014

Change the Weather History Date:

Sunday, April 20, 2014

  Actual Average (KLAS) Record (KLAS)
Temperature  
Mean Temperature 76 °F 68 °F  
Max Temperature 90 °F 80 °F 97 °F (1994)
Min Temperature 63 °F 57 °F 34 °F (1966)
Degree Days  
Heating Degree Days 0 2  
Month to date heating degree days 54  
Since 1 July heating degree days 1934  
Cooling Degree Days 12 5  
Month to date cooling degree days 65  
Year to date cooling degree days 96  
Growing Degree Days 26 (Base 50)    
Moisture  
Dew Point 33 °F    
Average Humidity 22    
Maximum Humidity 37    
Minimum Humidity 12    
Precipitation  
Precipitation 0.00 in 0.01 in 0.18 in (1990)
Month to date precipitation 0.12  
Year to date precipitation 1.86  
Snow  
Snow 0.00 in 0.00 in 0.00 in ()
Month to date snowfall 0.0  
Since 1 July snowfall 0.3  
Snow Depth -    
Sea Level Pressure  
Sea Level Pressure 29.95 in    
Wind  
Wind Speed 8 mph (SSW)    
Max Wind Speed 13 mph    
Max Gust Speed 17 mph    
Visibility 10 miles    
Events Rain    
T = Trace of Precipitation, MM = Missing Value Source: NWS Daily Summary

Daily Weather History Graph

Daily Weather History Graph

Search for Another Location

Airport or City:

Trip Planner

Search our weather history database for the weather conditions in past years. The results will help you decide how hot, cold, wet, or windy it might be!

Date:

Astronomy

Apr. 20, 2014 Rise Set
Actual Time 6:00 AM PDT 7:18 PM PDT
Civil Twilight 5:34 AM PDT 7:45 PM PDT
Nautical Twilight 5:02 AM PDT 8:17 PM PDT
Astronomical Twilight 4:29 AM PDT 8:50 PM PDT
Moon No Moon Rise 10:29 AM PDT (4/20)
Length of Visible Light 14h 11m
Length of Day
13h 17m
Waning Gibbous, 67% of the Moon is Illuminated
Apr 20
Waning Gibbous
Apr 22
Last Quarter
Apr 28
New
May 6
First Quarter
May 14
Full

Hourly Weather History & Observations

Time (PDT) Temp. Dew Point Humidity Pressure Visibility Wind Dir Wind Speed Gust Speed Precip Events Conditions
12:56 AM 68.0 °F 32.0 °F 26% 29.93 in 10.0 mi SSW 9.2 mph - N/A   Clear
1:56 AM 66.9 °F 32.0 °F 27% 29.93 in 10.0 mi SSW 6.9 mph - N/A   Clear
2:56 AM 66.9 °F 32.0 °F 27% 29.94 in 10.0 mi SSW 8.1 mph - N/A   Clear
3:56 AM 65.8 °F 34.0 °F 31% 29.94 in 10.0 mi SSW 11.5 mph - N/A   Clear
4:56 AM 64.9 °F 36.0 °F 34% 29.95 in 10.0 mi SSW 11.5 mph - 0.00 in   Clear
5:56 AM 63.9 °F 36.9 °F 37% 29.96 in 10.0 mi SSW 11.5 mph - N/A   Clear
6:56 AM 65.8 °F 37.9 °F 36% 29.99 in 10.0 mi WSW 6.9 mph - N/A   Clear
7:56 AM 70.0 °F 38.8 °F 32% 30.01 in 10.0 mi SSW 8.1 mph - N/A   Clear
8:56 AM 72.9 °F 37.9 °F 28% 30.01 in 10.0 mi Variable 3.5 mph - N/A   Clear
10:56 AM 82.9 °F 36.9 °F 19% 30.00 in 10.0 mi Variable 3.5 mph - N/A   Clear
11:56 AM 84.9 °F 36.0 °F 17% 29.99 in 10.0 mi Calm Calm - N/A   Clear
12:56 PM 84.9 °F 34.9 °F 17% 29.96 in 10.0 mi SW 8.1 mph - N/A   Clear
1:56 PM 86.9 °F 32.9 °F 14% 29.95 in 10.0 mi Variable 4.6 mph - N/A   Clear
2:56 PM 88.9 °F 32.0 °F 13% 29.92 in 10.0 mi WSW 12.7 mph 17.3 mph N/A   Clear
3:56 PM 88.9 °F 32.0 °F 13% 29.91 in 10.0 mi Variable 5.8 mph - 0.00 in   Clear
4:56 PM 90.0 °F 31.1 °F 12% 29.90 in 10.0 mi Calm Calm - N/A   Partly Cloudy
5:56 PM 88.9 °F 32.0 °F 13% 29.89 in 10.0 mi South 4.6 mph - N/A   Clear
6:56 PM 86.9 °F 32.0 °F 14% 29.89 in 10.0 mi SW 10.4 mph - N/A   Clear
7:56 PM 82.9 °F 31.1 °F 15% 29.91 in 10.0 mi SW 8.1 mph - N/A   Clear
8:56 PM 79.9 °F 30.0 °F 16% 29.94 in 10.0 mi SSW 9.2 mph - 0.00 in Rain Heavy Rain
9:56 PM 77.0 °F 30.0 °F 18% 29.96 in 10.0 mi South 6.9 mph - 0.00 in Rain Heavy Rain
10:56 PM 75.9 °F 29.1 °F 18% 29.94 in 10.0 mi South 11.5 mph - 0.00 in Rain Heavy Rain
11:56 PM 72.0 °F 29.1 °F 20% 29.96 in 10.0 mi South 11.5 mph - 0.00 in Rain Heavy Rain